Total_Precipitation_Accumulation
0.02 0.03 0.08 0.06 0.04 0.05 0.05 0.08 0.12 0.15 0.16 0.15 0.14 0.14 0.13 0.10 0.11 0.11 0.08 0.07 0.06 0.08 0.11 0.13 0.16 0.17 0.17 0.16 0.16 0.13 0.12 0.09 0.10 0.11 0.12 0.12 0.17 0.25 0.37 0.42 0.49 0.37 0.24
0.01 0.02 0.06 0.05 0.04 0.04 0.06 0.08 0.10 0.11 0.13 0.15 0.15 0.16 0.15 0.11 0.11 0.10 0.09 0.07 0.07 0.07 0.08 0.09 0.10 0.12 0.13 0.12 0.11 0.08 0.07 0.07 0.09 0.14 0.15 0.12 0.17 0.25 0.32 0.38 0.55 0.32 0.21
0.01 0.03 0.04 0.06 0.05 0.05 0.05 0.08 0.10 0.10 0.10 0.11 0.13 0.15 0.16 0.18 0.15 0.12 0.09 0.08 0.08 0.07 0.06 0.05 0.06 0.08 0.07 0.07 0.06 0.06 0.06 0.08 0.12 0.21 0.32 0.22 0.11 0.25 0.31 0.30 0.32 0.21 0.16
0.01 0.02 0.03 0.05 0.05 0.04 0.05 0.07 0.10 0.11 0.10 0.10 0.15 0.17 0.15 0.17 0.16 0.15 0.13 0.12 0.11 0.08 0.06 0.05 0.05 0.06 0.06 0.04 0.04 0.04 0.06 0.10 0.17 0.35 0.68 0.40 0.13 0.19 0.29 0.28 0.24 0.19 0.16
0.03 0.06 0.05 0.05 0.05 0.05 0.05 0.07 0.10 0.12 0.11 0.11 0.15 0.16 0.14 0.16 0.16 0.16 0.18 0.19 0.16 0.10 0.08 0.07 0.06 0.05 0.05 0.04 0.03 0.03 0.07 0.12 0.20 0.39 0.49 0.41 0.33 0.23 0.24 0.24 0.24 0.26 0.19
0.04 0.08 0.08 0.05 0.05 0.04 0.04 0.05 0.07 0.10 0.11 0.12 0.15 0.15 0.16 0.19 0.18 0.14 0.18 0.18 0.16 0.12 0.09 0.10 0.09 0.06 0.05 0.03 0.04 0.04 0.08 0.15 0.25 0.31 0.26 0.31 0.36 0.29 0.24 0.33 0.39 0.41 0.32
0.03 0.05 0.06 0.06 0.06 0.06 0.06 0.05 0.06 0.08 0.09 0.10 0.14 0.17 0.17 0.18 0.20 0.19 0.17 0.16 0.13 0.11 0.10 0.15 0.17 0.13 0.09 0.06 0.07 0.08 0.11 0.18 0.30 0.25 0.23 0.36 0.38 0.27 0.29 0.45 0.62 0.62 0.53
0.04 0.06 0.09 0.09 0.09 0.08 0.07 0.07 0.07 0.08 0.10 0.10 0.12 0.13 0.13 0.14 0.15 0.17 0.17 0.17 0.15 0.14 0.15 0.16 0.16 0.17 0.18 0.14 0.12 0.12 0.15 0.17 0.22 0.23 0.23 0.36 0.28 0.25 0.39 0.55 0.69 0.71 0.69
0.09 0.10 0.12 0.14 0.15 0.13 0.13 0.13 0.13 0.12 0.13 0.12 0.13 0.14 0.14 0.15 0.17 0.18 0.17 0.17 0.17 0.19 0.19 0.18 0.14 0.14 0.17 0.17 0.14 0.15 0.17 0.20 0.29 0.31 0.31 0.42 0.38 0.43 0.57 0.69 0.77 0.79 0.76
0.17 0.16 0.18 0.23 0.29 0.24 0.20 0.20 0.19 0.18 0.18 0.19 0.19 0.19 0.20 0.22 0.23 0.26 0.25 0.24 0.25 0.27 0.26 0.23 0.19 0.20 0.21 0.20 0.20 0.21 0.22 0.20 0.19 0.24 0.41 0.44 0.44 0.64 0.86 0.96 0.98 1.00 0.92
0.26 0.21 0.19 0.22 0.31 0.34 0.29 0.25 0.26 0.28 0.28 0.30 0.36 0.34 0.35 0.41 0.48 0.53 0.46 0.51 0.53 0.56 0.54 0.50 0.43 0.40 0.35 0.29 0.35 0.42 0.35 0.22 0.21 0.29 0.38 0.43 0.49 0.75 1.06 1.17 1.20 1.25 1.17
0.41 0.30 0.25 0.26 0.28 0.31 0.33 0.45 0.48 0.51 0.56 0.52 0.65 0.66 0.69 0.76 0.73 0.61 0.69 0.88 1.08 1.17 1.10 1.08 1.04 0.84 0.71 0.68 1.10 1.08 0.41 0.31 0.33 0.38 0.42 0.47 0.68 0.99 1.39 1.38 1.36 1.42 1.38
0.75 0.53 0.38 0.37 0.43 0.46 0.54 0.56 0.63 0.74 0.90 0.84 0.85 0.97 1.10 1.08 0.86 0.76 0.88 1.05 1.22 1.37 1.49 1.81 1.81 1.42 1.40 1.38 1.47 1.14 0.48 0.47 0.52 0.57 0.80 0.90 1.11 1.39 1.72 1.68 1.51 1.42 1.40
0.83 0.72 0.69 0.62 0.68 0.76 0.73 0.80 0.84 0.86 0.95 0.98 1.11 1.21 1.32 1.33 1.22 1.16 1.26 1.33 1.50 1.60 1.93 2.02 2.11 1.94 1.74 1.53 1.39 1.10 0.85 0.82 0.84 1.02 1.29 1.17 1.27 1.56 2.03 2.04 1.76 1.61 1.47
1.16 1.05 1.00 0.97 1.05 1.06 1.04 1.11 1.06 1.06 1.08 1.17 1.31 1.42 1.49 1.53 1.45 1.46 1.54 1.62 1.49 1.62 1.91 2.13 2.09 2.23 2.21 2.00 1.66 1.45 1.24 1.17 1.17 1.29 1.56 1.53 1.54 1.59 1.89 2.13 2.07 1.90 1.76
1.41 1.34 1.29 1.21 1.27 1.33 1.36 1.44 1.43 1.27 1.29 1.32 1.49 1.55 1.63 1.66 1.68 1.77 1.79 1.75 1.57 1.60 1.85 2.11 2.05 2.32 2.24 2.17 1.77 1.63 1.43 1.34 1.22 1.25 1.50 1.69 1.58 1.46 1.56 1.99 2.25 2.18 2.07
1.64 1.63 1.55 1.49 1.66 1.83 1.90 1.92 1.81 1.64 1.53 1.53 1.59 1.66 1.73 1.73 1.85 1.86 1.80 1.76 1.75 1.74 1.93 2.02 2.08 2.25 2.07 1.92 1.78 1.69 1.56 1.45 1.29 1.26 1.41 1.62 1.54 1.46 1.53 1.83 2.17 2.25 2.19
1.72 1.81 1.64 1.67 2.04 2.37 2.37 2.29 2.14 1.95 1.78 1.65 1.70 1.69 1.76 1.80 1.93 2.03 1.82 1.74 1.98 2.00 2.10 2.28 2.26 2.36 2.40 2.27 1.97 1.67 1.50 1.48 1.27 1.28 1.37 1.55 1.63 1.40 1.57 1.84 2.10 2.16 2.28
1.88 1.90 1.89 2.04 2.29 2.48 2.53 2.56 2.35 2.14 1.95 1.76 1.67 1.63 1.68 1.83 2.05 2.32 2.09 2.07 2.18 2.19 2.20 1.98 2.41 2.67 2.60 2.44 2.02 1.71 1.47 1.35 1.25 1.22 1.26 1.24 1.39 1.42 1.41 1.56 1.85 1.91 2.17
2.07 2.14 2.11 2.21 2.45 2.80 3.05 3.08 2.72 2.33 2.06 1.90 1.80 1.80 1.87 2.08 2.26 2.49 2.26 2.21 2.25 2.32 2.24 2.30 2.61 2.61 2.38 2.36 1.91 1.55 1.45 1.23 1.20 1.11 1.02 1.06 1.13 1.12 1.21 1.37 1.65 1.41 1.64
2.30 2.41 2.48 2.68 3.06 3.43 3.39 3.11 2.90 2.59 2.37 2.18 2.03 1.94 1.96 1.97 2.15 2.40 2.23 2.39 2.33 2.20 2.16 2.30 2.52 2.53 2.27 2.50 2.29 1.73 1.32 1.03 1.02 0.93 0.93 0.99 1.00 1.10 1.21 1.34 1.56 1.59 1.59
2.49 2.81 2.93 3.04 3.42 3.67 3.55 3.39 3.17 2.98 2.62 2.51 2.39 2.24 2.00 1.89 2.01 2.12 2.30 2.16 2.16 2.15 2.14 2.29 2.45 2.26 1.99 2.45 2.53 2.35 1.70 1.26 0.94 0.79 1.01 1.10 1.08 1.19 1.19 1.27 1.52 1.77 1.74
1.96 2.15 2.42 2.77 3.19 3.34 3.42 3.35 3.24 3.16 2.74 2.58 2.44 2.27 2.05 1.92 1.89 2.00 2.11 2.11 2.04 2.01 2.01 2.18 2.24 2.18 2.05 2.22 2.45 2.62 2.21 1.62 1.27 0.90 0.88 0.99 1.18 1.34 1.29 1.32 1.39 1.56 1.60
1.44 1.65 1.94 2.28 2.62 2.85 2.99 3.03 3.06 2.96 2.76 2.68 2.50 2.17 1.93 1.80 1.81 1.87 1.90 1.89 1.88 1.84 1.82 1.79 1.89 2.20 2.25 2.07 2.25 2.31 2.25 2.07 1.82 1.27 1.00 0.99 1.09 1.18 1.28 1.21 1.17 1.36 1.54
1.37 1.58 1.80 1.99 2.28 2.52 2.62 2.61 2.61 2.51 2.42 2.35 2.20 1.96 1.79 1.67 1.61 1.52 1.56 1.72 1.78 1.70 1.64 1.66 1.78 1.94 1.97 1.95 2.05 2.17 2.19 2.12 1.89 1.59 1.17 1.03 0.98 0.92 1.01 1.06 1.11 1.20 1.31
1.51 1.75 1.94 2.09 2.29 2.38 2.24 2.08 2.07 2.08 2.09 2.00 1.86 1.70 1.53 1.43 1.36 1.30 1.38 1.52 1.57 1.57 1.56 1.53 1.58 1.68 1.76 1.80 1.88 1.99 2.02 1.92 1.84 1.83 1.46 1.19 1.07 0.82 0.83 0.91 0.98 1.03 1.12